DECAYED

STARLINK-1187, 45219 (Decayed)

Orbit data source: Space-Track

STARLINK-1187, 45219 was a payload satellite owned by SpaceX/Seattle (US) in LEO that was launched on Mon, 17 Feb 2020 UTC via an FALCON 9 launch vehicle from the Air Force Eastern Test Range (AFETR). Payload-class satellites include a variety of spacecraft equipped with specific instruments for various scientific and technological missions. These include communications satellites like Starlink; space stations such as the ISS; scientific satellites like the Hubble; Earth observation satellites from companies like Planet Labs, Umbra, and HawkEye 360; GPS; miniature CubeSats for education and research; and military/defense satellites.

Not visible in the next 10 days
Identifier
45219, 2020-012AT
Orbit
Decayed
Country
Flag of USUS
Related business
Manufacturer
SpaceX/Seattle
Mission
Decayed Commercial Communications
Bus & Motor
STARLINK, Unknown motor
Mass
260 kg wet, ~248 kg dry
Launch date (UTC)
2020-02-17 (7 years ago)
Launch vehicle
FALCON 9
Launch site
Air Force Eastern Test Range (AFETR)
Object type
Payload
Rocket body
Debris
Shape & HBR
Box + 1 Pan, 10.1 m
Radar Cross Section
13.562 m², Large (>1 m²)

Expand to show TLE details & history
Last TLE update: 1 year ago

TLE from 1 year ago
0 STARLINK-1187
1 45219U 20012AT  25178.43082388  .11486063  12616-4  20137-3 0  9990
2 45219  53.0207 332.1866 0010697 289.3133 165.2150 16.46955350297362
Epoch: 2025-06-27T10:20Z
TLE epoch observation values (Epoch: 2025-06-27T10:20:23.183Z)
Latitude
52.93929°
Longitude
-1.13306°
Altitude
160.532 km
Speed
7.812 km/s
True Right ascension
04h 38m 59s
True Declination
52° 45' 31"
Sunlit
Object was in daylight at epoch
Visualization orbit readout
Latitude
Unknown
Longitude
Unknown
Altitude
Unknown
Speed
Unknown
Apparent Right ascension
Unknown
Apparent Declination
Unknown
Sunlit
N/A
Visualization observer readout
Local Sidereal Time
21:29:15
Azimuth
Unknown
Elevation
Unknown
Doppler factor
Unknown
Orbital elements
Apogee altitude
154.639 km
Perigee altitude
140.677 km
Semi-major axis
6,525.795 km
Eccentricity
0.00107
Inclination
53.0207°
RAAN
332.1866°
Arg. of periapsis
289.3133°
True anomaly
165.24624°
Mean anomaly
165.215°
Eccentric anomaly
165.23062°
Mean motion
4.11712 °/min
Orbital period
87.44 mins
BSTAR
0.00020137
Loading maneuver chart data...
Computing Atmospheric mass density...

Documentation

Showing up to 5 results
|